Date,TemperatureHighF,TemperatureAvgF,TemperatureLowF,DewpointHighF,DewpointAvgF,DewpointLowF,HumidityHigh,HumidityAvg,HumidityLow,PressureMaxIn,PressureMinIn,WindSpeedMaxMPH,WindSpeedAvgMPH,GustSpeedMaxMPH,PrecipitationSumIn
2013-1-1,26.7,20.0,10.5,19.4,12.3,5.2,84,72,50,30.25,30.12,16,5,0,0.00
2013-1-2,24.2,15.5,7.7,13.8,9.2,4.4,87,77,53,30.29,30.19,14,6,18,0.00
2013-1-3,32.4,24.6,17.3,25.4,19.2,12.4,90,80,65,30.32,30.17,20,9,23,0.00
2013-1-4,32.4,21.9,12.0,24.3,17.6,9.0,91,84,67,30.32,30.22,23,9,25,0.00
2013-1-5,33.9,27.4,16.9,31.6,24.6,14.4,96,89,74,30.31,30.02,18,8,21,0.01
2013-1-6,34.3,26.1,14.2,31.6,22.9,12.3,93,87,79,30.38,29.97,22,9,25,0.01
2013-1-7,36.2,24.7,12.1,27.6,20.8,10.2,93,85,66,30.41,30.17,28,8,28,0.00
2013-1-8,41.4,31.5,23.8,33.1,27.2,21.3,92,84,70,30.23,30.09,15,6,17,0.00
2013-1-9,49.3,37.6,23.9,35.4,28.3,19.6,90,71,36,30.53,30.08,27,9,29,0.00
2013-1-10,42.9,33.2,20.7,41.7,27.9,17.1,96,82,57,30.53,29.93,18,6,22,0.40
2013-1-11,52.3,48.4,42.5,51.5,47.5,41.4,97,97,94,29.93,29.72,21,9,22,0.14
2013-1-13,25.1,19.0,13.6,23.6,15.8,9.7,94,87,83,30.29,29.98,19,10,23,0.00
2013-1-14,24.0,15.7,11.3,17.5,11.7,7.8,92,84,70,30.52,30.29,12,3,0,0.00
2013-1-15,28.7,19.5,9.8,21.8,15.4,7.2,92,84,68,30.48,30.16,9,1,0,0.00
2013-1-16,34.9,25.8,14.3,28.3,21.4,11.7,92,84,69,30.17,29.92,24,8,27,0.00
2013-1-17,32.9,25.8,15.4,28.4,18.0,11.2,94,74,46,30.45,30.09,17,5,0,0.00
2013-1-18,38.8,29.0,14.7,29.7,23.0,11.7,91,79,65,30.48,30.01,27,11,32,0.00
2013-1-19,47.6,40.0,29.7,37.9,32.5,17.4,84,75,50,30.03,29.78,34,14,40,0.00
2013-1-20,29.4,18.3,13.0,20.2,8.3,5.4,74,65,53,30.32,29.93,26,10,32,0.00
2013-1-21,15.0,9.4,3.7,8.0,1.1,-4.0,85,68,52,30.34,30.19,27,12,28,0.00
2013-1-22,11.8,6.4,-1.9,1.3,-2.2,-6.2,81,67,52,30.46,30.33,17,8,20,0.00
2013-1-23,20.8,15.7,10.6,13.0,6.7,0.3,87,67,57,30.41,30.16,23,8,26,0.00
2013-1-24,21.4,14.4,6.7,11.0,5.1,-0.2,79,67,46,30.67,30.34,17,7,18,0.00
2013-1-25,28.0,21.7,16.7,22.0,16.1,9.4,90,79,67,30.44,30.04,17,6,19,0.00
2013-1-26,30.3,21.0,9.3,19.4,13.8,5.5,87,74,54,30.45,30.20,12,4,0,0.00
2013-1-27,36.4,28.4,20.4,35.4,24.0,16.5,96,84,71,30.44,29.98,18,7,21,0.07
2013-1-28,49.0,45.1,36.5,48.2,44.2,35.5,98,97,96,29.98,29.85,25,7,25,0.05
2013-1-29,59.6,56.2,46.6,57.8,55.0,46.1,98,96,93,29.85,29.39,26,14,32,0.79
2013-1-30,50.7,36.7,21.0,49.9,35.0,16.9,98,94,83,29.65,29.20,27,11,32,0.23
2013-1-31,21.1,14.7,5.4,18.6,10.2,0.9,90,82,75,30.19,29.65,28,16,29,0.00